Location: Lane
(33.5226°N, 79.8788°W)
Time: 01:33:14
(UTC+00:00)

Vanguard 1 Rocket - Pass Details

Date: 10 October 2022
Orbit: 650 x 4225 km, 34.3° (Epoch: 05 December)

Event Time Altitude Azimuth Distance (km) Brightness Sun altitude
Rises 04:12:17 0° 286° (WNW) 7,269 12.3 -60.3°
Reaches altitude 10° 04:17:59 10° 284° (WNW) 5,701 11.6 -60.8°
Enters shadow 04:23:40 24° 280° (W) 4,041 10.7 -61.3°
